Torna al catalogo

FENGYUN 1C DEB

AttivoSSO
NORAD 33665·DEBRIS·🇨🇳 China

Lanciato May 10, 1999 da Taiyuan Satellite Launch Center

Loading…

Prossimi Passaggi (prossime 24 ore)

TLE

AggiornatoSource: Space-Track

Epoca: Sep 12, 2026, 03:28 UTC

1 33665U 99025DFA 26255.14445221  .00001028  00000-0  26733-3 0  9996
2 33665  99.0494  17.3372 0449728  48.9389 314.9738 14.05199960964297

Traccia FENGYUN 1C DEB in tempo reale con AllMySat

Download on the App Store